Weather History for KNJK - January, 2013

Change the Weather History Date:

Friday, January 18, 2013

  Actual Average Record
Temperature  
Mean Temperature 56 °F -  
Max Temperature 73 °F 69 °F 84 °F (2011)
Min Temperature 39 °F 46 °F 31 °F (2007)
Degree Days  
Heating Degree Days 9    
Growing Degree Days 6 (Base 50)    
Moisture  
Dew Point 18 °F    
Average Humidity 27    
Maximum Humidity 45    
Minimum Humidity 11    
Precipitation  
Precipitation 0.00 in - - ()
Sea Level Pressure  
Sea Level Pressure 30.21 in    
Wind  
Wind Speed 5 mph (West)    
Max Wind Speed 9 mph    
Max Gust Speed -    
Visibility 10 miles    
Events      
Averages and records for this station are not official NWS values.
T = Trace of Precipitation, MM = Missing Value Source: NWS Daily Summary

Daily Weather History Graph

Daily Weather History Graph

Search for Another Location

Airport or City:

Trip Planner

Search our weather history database for the weather conditions in past years. The results will help you decide how hot, cold, wet, or windy it might be!

Date:

Astronomy

Jan. 18, 2013 Rise Set
Actual Time 6:44 AM PST 5:02 PM PST
Civil Twilight 6:17 AM PST 5:28 PM PST
Nautical Twilight 5:47 AM PST 5:59 PM PST
Astronomical Twilight 5:18 AM PST 6:28 PM PST
Moon 10:52 AM PST (1/18) No Moon Set
Length of Visible Light 11h 11m
Length of Day
10h 17m
Waxing Crescent, 48% of the Moon is Illuminated
Jan 18
Waxing Crescent
Jan 18
First Quarter
Jan 26
Full
Feb 3
Last Quarter
Feb 9
New

Hourly Weather History & Observations

Time (PST) Temp. Windchill Dew Point Humidity Pressure Visibility Wind Dir Wind Speed Gust Speed Precip Events Conditions
12:56 AM 45.0 °F 40.6 °F 17.1 °F 33% 30.23 in 10.0 mi West 8.1 mph - N/A   Clear
1:56 AM 43.0 °F 37.7 °F 19.0 °F 38% 30.23 in 10.0 mi WSW 9.2 mph - N/A   Clear
2:56 AM 41.0 °F 35.2 °F 18.0 °F 40% 30.22 in 10.0 mi West 9.2 mph - N/A   Clear
3:56 AM 39.9 °F - 16.0 °F 38% 30.22 in 10.0 mi Calm Calm - N/A   Clear
4:56 AM 42.1 °F - 17.1 °F 37% 30.22 in 10.0 mi Calm Calm - N/A   Clear
5:56 AM 41.0 °F 37.1 °F 18.0 °F 40% 30.23 in 10.0 mi WSW 5.8 mph - N/A   Clear
6:56 AM 39.0 °F 34.8 °F 19.0 °F 45% 30.24 in 10.0 mi West 5.8 mph - N/A   Scattered Clouds
7:56 AM 44.1 °F 41.5 °F 19.9 °F 38% 30.26 in 10.0 mi West 4.6 mph - N/A   Partly Cloudy
8:56 AM 53.1 °F - 21.9 °F 30% 30.28 in 10.0 mi West 3.5 mph - N/A   Partly Cloudy
9:56 AM 63.0 °F - 21.9 °F 21% 30.28 in 10.0 mi West 4.6 mph - N/A   Partly Cloudy
10:56 AM 66.9 °F - 17.1 °F 15% 30.25 in 10.0 mi West 3.5 mph - N/A   Scattered Clouds
11:56 AM 70.0 °F - 17.1 °F 13% 30.21 in 10.0 mi West 4.6 mph - N/A   Partly Cloudy
12:56 PM 72.0 °F - 15.1 °F 11% 30.19 in 10.0 mi Calm Calm - N/A   Partly Cloudy
1:56 PM 73.0 °F - 16.0 °F 11% 30.18 in 10.0 mi NNW 4.6 mph - N/A   Partly Cloudy
2:56 PM 73.9 °F - 17.1 °F 12% 30.17 in 10.0 mi Calm Calm - N/A   Partly Cloudy
3:56 PM 73.0 °F - 19.0 °F 13% 30.17 in 10.0 mi Calm Calm - N/A   Partly Cloudy
4:56 PM 68.0 °F - 19.0 °F 15% 30.17 in 10.0 mi Calm Calm - N/A   Partly Cloudy
5:56 PM 64.9 °F - 21.0 °F 19% 30.17 in 10.0 mi Calm Calm - N/A   Partly Cloudy
6:56 PM 53.1 °F - 19.9 °F 27% 30.18 in 10.0 mi WSW 4.6 mph - N/A   Clear
7:56 PM 52.0 °F - 23.0 °F 32% 30.19 in 10.0 mi West 6.9 mph - N/A   Clear
8:56 PM 48.9 °F - 19.0 °F 31% 30.19 in 10.0 mi West 4.6 mph - N/A   Clear
9:56 PM 48.9 °F - 19.0 °F 31% 30.20 in 10.0 mi West 8.1 mph - N/A   Clear
10:56 PM 45.0 °F 40.6 °F 16.0 °F 31% 30.20 in 10.0 mi West 8.1 mph - N/A   Clear
11:56 PM 42.1 °F 38.4 °F 14.0 °F 32% 30.19 in 10.0 mi West 5.8 mph - N/A   Clear